QPF
0.00 0.00 0.00 0.00 0.00 0.00 0.00 0.00 0.00 0.00 0.00 0.00 0.00 0.00 0.02 0.04 0.04 0.03 0.02 0.01 0.01 0.00 0.00 0.00 0.00 0.00 0.00 0.00 0.00 0.00 0.00 0.00 0.00 0.00 0.00 0.00 0.00 0.00 0.00 0.00 0.00 0.00 0.00
0.00 0.00 0.00 0.00 0.00 0.00 0.00 0.00 0.00 0.00 0.00 0.00 0.02 0.03 0.03 0.02 0.01 0.01 0.00 0.00 0.00 0.00 0.00 0.00 0.00 0.00 0.00 0.00 0.00 0.00 0.00 0.00 0.00 0.00 0.00 0.00 0.00 0.00 0.00 0.00 0.00 0.00 0.00
0.00 0.00 0.00 0.00 0.00 0.00 0.00 0.00 0.00 0.00 0.00 0.01 0.02 0.01 0.00 0.00 0.00 0.00 0.00 0.00 0.00 0.00 0.00 0.00 0.00 0.00 0.00 0.00 0.00 0.00 0.00 0.00 0.00 0.00 0.00 0.00 0.00 0.00 0.00 0.00 0.00 0.00 0.00
0.00 0.00 0.00 0.00 0.00 0.00 0.00 0.00 0.01 0.01 0.01 0.01 0.01 0.00 0.00 0.00 0.00 0.00 0.00 0.00 0.00 0.00 0.00 0.00 0.00 0.00 0.00 0.00 0.00 0.00 0.00 0.00 0.00 0.00 0.00 0.00 0.00 0.00 0.00 0.00 0.00 0.00 0.00
0.00 0.00 0.00 0.00 0.00 0.02 0.02 0.01 0.02 0.01 0.02 0.01 0.00 0.00 0.00 0.00 0.00 0.00 0.00 0.00 0.00 0.00 0.00 0.00 0.00 0.00 0.00 0.00 0.00 0.00 0.00 0.00 0.00 0.00 0.00 0.00 0.00 0.00 0.00 0.00 0.00 0.00 0.00
0.00 0.00 0.01 0.00 0.01 0.02 0.02 0.01 0.01 0.01 0.00 0.00 0.00 0.00 0.00 0.00 0.00 0.00 0.00 0.00 0.00 0.00 0.00 0.00 0.00 0.00 0.00 0.00 0.00 0.00 0.00 0.00 0.00 0.01 0.01 0.00 0.00 0.00 0.00 0.00 0.01 0.01 0.00
0.00 0.00 0.00 0.00 0.00 0.00 0.00 0.00 0.00 0.00 0.00 0.00 0.00 0.00 0.00 0.00 0.00 0.00 0.00 0.00 0.00 0.00 0.00 0.00 0.00 0.00 0.00 0.00 0.00 0.00 0.00 0.00 0.00 0.00 0.01 0.00 0.00 0.00 0.00 0.01 0.01 0.01 0.01
0.00 0.00 0.00 0.00 0.00 0.00 0.00 0.00 0.00 0.00 0.00 0.00 0.00 0.00 0.00 0.00 0.00 0.00 0.00 0.00 0.00 0.00 0.00 0.00 0.00 0.00 0.00 0.00 0.00 0.00 0.00 0.00 0.00 0.00 0.01 0.01 0.00 0.00 0.00 0.01 0.01 0.01 0.02
0.00 0.00 0.00 0.00 0.00 0.00 0.00 0.00 0.00 0.00 0.00 0.00 0.00 0.00 0.00 0.00 0.00 0.00 0.00 0.00 0.00 0.00 0.00 0.00 0.00 0.00 0.00 0.00 0.02 0.02 0.01 0.01 0.00 0.00 0.00 0.00 0.00 0.00 0.00 0.02 0.04 0.04 0.03
0.00 0.00 0.00 0.00 0.00 0.00 0.00 0.00 0.00 0.00 0.00 0.00 0.00 0.00 0.00 0.00 0.00 0.00 0.00 0.00 0.01 0.01 0.00 0.00 0.00 0.00 0.00 0.01 0.04 0.03 0.01 0.00 0.00 0.00 0.00 0.00 0.00 0.01 0.00 0.02 0.04 0.05 0.03
0.00 0.00 0.00 0.00 0.00 0.00 0.00 0.00 0.00 0.00 0.00 0.00 0.00 0.00 0.00 0.00 0.00 0.00 0.00 0.00 0.01 0.01 0.01 0.01 0.01 0.02 0.01 0.01 0.01 0.00 0.01 0.00 0.00 0.01 0.01 0.01 0.01 0.01 0.01 0.01 0.02 0.03 0.03
0.00 0.00 0.00 0.00 0.00 0.00 0.00 0.00 0.00 0.00 0.00 0.00 0.00 0.00 0.00 0.00 0.00 0.00 0.00 0.01 0.01 0.02 0.01 0.02 0.03 0.01 0.00 0.00 0.00 0.00 0.00 0.00 0.01 0.02 0.02 0.02 0.01 0.01 0.01 0.01 0.01 0.02 0.01
0.00 0.00 0.00 0.00 0.00 0.00 0.00 0.00 0.00 0.00 0.00 0.00 0.00 0.00 0.00 0.00 0.00 0.00 0.01 0.01 0.00 0.01 0.03 0.02 0.01 0.00 0.00 0.00 0.00 0.00 0.00 0.00 0.00 0.01 0.01 0.01 0.01 0.01 0.01 0.02 0.02 0.02 0.02
0.00 0.00 0.00 0.00 0.00 0.00 0.00 0.00 0.00 0.00 0.00 0.00 0.00 0.00 0.00 0.00 0.00 0.01 0.01 0.00 0.01 0.02 0.02 0.02 0.01 0.01 0.00 0.00 0.00 0.00 0.00 0.00 0.01 0.01 0.01 0.01 0.01 0.01 0.01 0.01 0.02 0.02 0.02
0.00 0.00 0.00 0.00 0.00 0.00 0.00 0.00 0.00 0.00 0.00 0.00 0.00 0.00 0.01 0.01 0.00 0.01 0.01 0.01 0.02 0.02 0.02 0.02 0.02 0.02 0.01 0.00 0.00 0.00 0.00 0.00 0.01 0.01 0.01 0.01 0.01 0.01 0.00 0.00 0.00 0.01 0.01
0.00 0.00 0.00 0.00 0.00 0.00 0.00 0.00 0.00 0.00 0.00 0.00 0.00 0.00 0.00 0.00 0.01 0.01 0.00 0.01 0.02 0.02 0.03 0.03 0.03 0.03 0.01 0.00 0.00 0.00 0.01 0.00 0.00 0.00 0.01 0.01 0.01 0.01 0.01 0.01 0.00 0.00 0.01
0.00 0.00 0.00 0.00 0.00 0.00 0.00 0.00 0.00 0.00 0.00 0.00 0.00 0.00 0.00 0.00 0.01 0.00 0.00 0.01 0.01 0.02 0.03 0.03 0.03 0.03 0.02 0.01 0.00 0.00 0.00 0.00 0.00 0.00 0.00 0.00 0.00 0.00 0.00 0.01 0.01 0.01 0.01
0.00 0.00 0.00 0.00 0.00 0.00 0.00 0.00 0.00 0.00 0.00 0.00 0.00 0.00 0.00 0.00 0.00 0.00 0.00 0.00 0.01 0.01 0.02 0.02 0.02 0.03 0.02 0.01 0.01 0.00 0.00 0.00 0.00 0.00 0.00 0.00 0.00 0.00 0.00 0.00 0.01 0.01 0.01
0.00 0.00 0.00 0.00 0.00 0.00 0.00 0.00 0.00 0.00 0.00 0.00 0.00 0.00 0.00 0.00 0.00 0.00 0.00 0.01 0.01 0.01 0.02 0.02 0.02 0.02 0.01 0.01 0.01 0.01 0.01 0.01 0.01 0.00 0.01 0.01 0.01 0.01 0.00 0.00 0.00 0.00 0.00
0.00 0.00 0.00 0.00 0.00 0.00 0.00 0.00 0.00 0.00 0.00 0.00 0.00 0.00 0.00 0.00 0.00 0.00 0.00 0.01 0.01 0.01 0.01 0.01 0.01 0.00 0.00 0.00 0.00 0.00 0.00 0.00 0.00 0.01 0.01 0.01 0.01 0.01 0.01 0.01 0.01 0.00 0.00
0.00 0.00 0.00 0.00 0.00 0.00 0.00 0.00 0.00 0.00 0.00 0.00 0.00 0.00 0.00 0.00 0.00 0.00 0.00 0.00 0.00 0.00 0.00 0.00 0.00 0.00 0.00 0.00 0.00 0.00 0.00 0.00 0.00 0.00 0.01 0.01 0.01 0.01 0.00 0.01 0.01 0.01 0.00
0.00 0.00 0.00 0.00 0.00 0.00 0.00 0.00 0.00 0.00 0.00 0.00 0.00 0.00 0.00 0.00 0.00 0.01 0.00 0.00 0.00 0.00 0.00 0.00 0.00 0.00 0.00 0.00 0.00 0.00 0.00 0.00 0.00 0.00 0.00 0.01 0.00 0.00 0.00 0.01 0.00 0.00 0.00
0.00 0.00 0.00 0.00 0.00 0.00 0.00 0.00 0.00 0.00 0.00 0.00 0.00 0.00 0.00 0.00 0.00 0.00 0.00 0.00 0.00 0.00 0.00 0.00 0.00 0.00 0.00 0.00 0.00 0.00 0.00 0.00 0.00 0.00 0.00 0.00 0.00 0.00 0.00 0.00 0.00 0.00 0.00
0.00 0.00 0.00 0.00 0.00 0.01 0.00 0.01 0.00 0.00 0.00 0.00 0.00 0.00 0.00 0.00 0.00 0.00 0.00 0.00 0.00 0.00 0.00 0.00 0.00 0.00 0.00 0.00 0.00 0.00 0.00 0.00 0.00 0.00 0.00 0.00 0.00 0.00 0.00 0.00 0.00 0.00 0.00
0.01 0.01 0.01 0.01 0.01 0.01 0.01 0.01 0.00 0.01 0.00 0.00 0.00 0.00 0.00 0.00 0.00 0.00 0.00 0.00 0.00 0.00 0.00 0.00 0.00 0.00 0.00 0.00 0.00 0.00 0.00 0.00 0.00 0.00 0.00 0.00 0.00 0.00 0.00 0.00 0.00 0.00 0.00
0.00 0.00 0.01 0.01 0.01 0.01 0.01 0.01 0.01 0.01 0.00 0.00 0.00 0.00 0.00 0.00 0.00 0.00 0.00 0.00 0.00 0.00 0.00 0.00 0.00 0.00 0.00 0.00 0.00 0.00 0.00 0.00 0.00 0.00 0.00 0.00 0.00 0.00 0.00 0.00 0.00 0.00 0.00
MSLP
1019.89 1020.00 1019.90 1019.71 1019.69 1019.55 1019.35 1019.20 1019.01 1018.82 1018.95 1019.09 1019.31 1019.43 1019.53 1019.36 1019.06 1018.66 1018.35 1018.01 1017.63 1017.31 1016.99 1016.71 1016.21 1015.96 1015.71 1015.55 1015.43 1015.39 1015.26 1014.92 1014.13 1013.61 1013.36 1013.19 1013.16 1013.23 1013.31 1013.49 1013.44 1013.21 1013.03
1020.18 1019.95 1019.82 1019.73 1019.70 1019.45 1019.39 1019.38 1019.30 1019.32 1019.76 1019.84 1019.77 1019.61 1019.09 1018.57 1018.29 1018.01 1017.61 1017.45 1017.15 1016.73 1016.51 1016.20 1015.91 1015.70 1015.51 1015.32 1015.11 1014.84 1014.59 1014.31 1013.99 1013.25 1012.94 1012.84 1012.59 1012.65 1012.67 1012.67 1012.61 1012.29 1012.13
1020.07 1019.73 1019.42 1019.44 1019.69 1019.57 1019.63 1019.81 1019.79 1019.59 1019.48 1019.11 1018.82 1018.49 1018.25 1018.05 1017.83 1017.68 1017.50 1017.24 1016.93 1016.65 1016.33 1016.00 1015.76 1015.60 1015.35 1015.18 1015.03 1014.63 1014.36 1014.06 1013.80 1013.38 1012.64 1012.56 1012.31 1012.20 1011.90 1011.78 1011.70 1011.61 1011.54
1020.23 1019.78 1019.42 1019.55 1019.95 1019.91 1019.79 1019.92 1019.40 1018.97 1018.65 1018.49 1018.54 1018.57 1018.40 1018.22 1017.98 1017.68 1017.56 1017.25 1016.91 1016.53 1016.27 1016.03 1015.72 1015.53 1015.26 1015.03 1014.77 1014.48 1014.16 1013.80 1013.54 1013.26 1012.67 1012.14 1011.98 1011.69 1011.41 1011.17 1010.90 1010.88 1010.71
1020.06 1019.71 1019.65 1019.80 1020.31 1020.21 1020.14 1020.04 1019.50 1018.94 1018.66 1018.46 1018.39 1018.21 1018.14 1017.96 1017.66 1018.11 1017.80 1017.28 1016.68 1016.19 1015.90 1015.73 1015.50 1015.29 1015.40 1015.48 1015.21 1014.48 1013.98 1013.48 1013.01 1012.90 1013.01 1012.66 1012.04 1011.64 1011.32 1011.23 1011.01 1010.87 1010.48
1020.02 1019.78 1020.00 1020.07 1020.07 1019.71 1019.50 1019.23 1019.04 1018.90 1018.62 1018.42 1018.20 1018.10 1017.94 1017.72 1018.16 1018.51 1018.31 1017.40 1016.63 1015.97 1015.48 1015.28 1015.10 1014.88 1014.50 1014.55 1014.68 1014.71 1014.68 1014.23 1013.84 1013.54 1012.87 1012.29 1011.84 1011.61 1011.34 1011.13 1010.86 1010.62 1010.27
1020.07 1019.95 1019.93 1019.91 1019.67 1019.42 1019.25 1019.07 1018.94 1018.83 1018.60 1018.34 1018.11 1017.99 1017.86 1017.79 1018.18 1018.36 1018.14 1017.37 1016.47 1015.68 1015.22 1014.87 1014.46 1014.06 1014.07 1014.08 1014.06 1014.02 1013.97 1013.88 1013.81 1013.43 1012.61 1011.99 1011.47 1011.32 1011.18 1010.87 1010.61 1010.32 1009.72
1020.01 1019.99 1020.06 1020.08 1019.79 1019.44 1019.09 1019.02 1018.96 1018.75 1018.52 1018.23 1018.02 1017.99 1017.87 1017.70 1018.07 1018.15 1017.87 1017.00 1016.00 1015.40 1014.92 1014.51 1014.16 1014.07 1014.01 1014.06 1013.81 1013.26 1012.95 1012.52 1012.21 1011.96 1011.55 1010.94 1010.67 1010.86 1010.77 1010.39 1010.01 1009.67 1009.46
1020.02 1020.28 1020.32 1020.09 1019.93 1019.50 1019.05 1018.99 1018.87 1018.70 1018.49 1018.25 1018.21 1018.08 1017.91 1017.78 1017.90 1017.96 1017.65 1016.72 1015.77 1015.29 1014.93 1014.52 1014.07 1013.73 1013.52 1013.51 1013.15 1012.59 1011.90 1011.21 1010.74 1010.67 1010.46 1010.21 1010.04 1010.02 1010.11 1009.91 1009.36 1009.00 1008.34
1019.74 1019.77 1019.83 1019.90 1019.84 1019.46 1019.19 1018.96 1018.87 1018.64 1018.46 1018.58 1018.58 1018.41 1018.06 1017.77 1017.85 1017.78 1017.41 1016.61 1015.91 1015.08 1014.56 1013.88 1013.50 1013.22 1013.05 1012.99 1012.57 1011.88 1011.26 1010.75 1010.29 1009.85 1009.44 1009.09 1008.91 1008.71 1008.72 1008.88 1008.64 1008.11 1007.71
1019.55 1019.62 1019.67 1019.79 1019.60 1019.48 1019.20 1018.90 1018.78 1018.61 1018.67 1019.03 1019.02 1018.62 1018.18 1017.84 1017.64 1017.43 1017.11 1016.66 1015.90 1015.10 1014.25 1013.33 1012.75 1012.70 1012.68 1012.52 1012.21 1011.60 1011.16 1010.89 1010.24 1009.54 1008.74 1008.15 1007.83 1007.56 1007.24 1007.13 1007.18 1007.13 1006.81
1019.20 1019.24 1019.40 1019.51 1019.47 1019.40 1019.04 1018.74 1018.61 1018.40 1018.50 1018.82 1018.68 1018.24 1017.74 1017.59 1017.15 1016.87 1016.70 1016.27 1015.76 1014.99 1014.02 1013.20 1012.71 1012.66 1012.44 1012.13 1011.75 1011.23 1011.02 1010.53 1009.58 1008.81 1008.04 1007.27 1006.82 1006.46 1006.18 1006.08 1006.04 1006.10 1006.00
1018.88 1018.94 1019.16 1019.33 1019.26 1019.12 1018.89 1018.62 1018.53 1018.46 1018.65 1018.71 1018.46 1018.02 1017.69 1017.25 1016.63 1016.58 1016.39 1015.83 1015.25 1014.58 1013.75 1013.33 1012.93 1012.65 1012.20 1011.63 1011.21 1010.98 1010.54 1009.81 1009.19 1008.48 1007.66 1006.93 1006.47 1006.05 1005.91 1005.48 1005.39 1005.44 1005.48
1018.62 1018.81 1019.01 1019.02 1019.11 1018.90 1018.77 1018.57 1018.58 1018.78 1018.94 1018.76 1018.37 1018.02 1017.61 1017.16 1016.63 1016.72 1016.15 1015.55 1014.91 1014.15 1013.79 1013.02 1012.85 1012.59 1011.98 1011.48 1010.84 1010.41 1010.04 1009.48 1009.01 1008.35 1007.71 1007.00 1006.29 1005.71 1005.53 1005.08 1004.84 1004.74 1004.83
1018.61 1018.92 1019.06 1019.09 1019.02 1019.00 1018.92 1018.85 1018.95 1019.04 1019.38 1019.13 1018.65 1018.33 1017.79 1017.48 1017.27 1017.13 1016.58 1015.92 1015.24 1014.66 1013.97 1013.18 1012.80 1012.43 1011.75 1011.19 1010.76 1010.33 1009.80 1009.44 1008.98 1008.47 1007.80 1007.16 1006.38 1005.64 1005.38 1005.12 1004.99 1004.64 1004.39
1018.67 1018.87 1018.94 1019.18 1019.01 1019.01 1018.88 1018.71 1018.92 1019.22 1019.38 1019.43 1019.23 1018.93 1018.37 1018.03 1017.61 1017.10 1016.64 1016.12 1015.57 1014.90 1014.02 1013.64 1013.29 1012.94 1012.25 1011.60 1010.99 1010.52 1010.15 1009.80 1009.28 1008.62 1008.04 1007.47 1006.85 1006.06 1005.48 1005.05 1004.94 1004.65 1004.30
1018.99 1019.11 1019.11 1019.20 1019.00 1018.95 1018.93 1018.83 1018.64 1018.52 1018.80 1018.95 1019.00 1018.94 1018.73 1018.25 1017.68 1017.23 1016.74 1016.22 1015.77 1015.11 1014.61 1014.25 1013.90 1013.51 1012.95 1012.31 1011.78 1011.23 1010.71 1010.26 1009.72 1009.01 1008.39 1007.83 1007.28 1006.63 1006.00 1005.33 1004.88 1004.42 1004.18
1019.32 1019.47 1019.33 1019.04 1019.03 1019.03 1018.96 1018.89 1018.79 1018.59 1018.38 1018.11 1018.35 1018.67 1018.60 1018.22 1017.82 1017.42 1016.94 1016.06 1015.66 1015.46 1015.28 1014.89 1014.52 1014.11 1013.60 1013.00 1012.42 1011.88 1011.24 1010.55 1009.92 1009.32 1008.74 1008.21 1007.65 1007.04 1006.39 1005.85 1005.37 1004.95 1004.46
1019.14 1019.14 1019.23 1019.12 1019.07 1019.10 1018.98 1018.81 1018.70 1018.55 1018.37 1018.00 1017.84 1017.90 1018.10 1017.99 1017.72 1017.41 1017.08 1016.57 1016.21 1015.96 1015.81 1015.43 1015.13 1014.66 1014.12 1013.56 1013.03 1012.43 1011.67 1010.93 1010.32 1009.71 1009.15 1008.65 1008.12 1007.51 1006.81 1006.40 1005.94 1005.51 1005.08
1018.91 1019.20 1019.19 1018.86 1018.77 1018.74 1018.67 1018.61 1018.47 1018.38 1018.15 1017.92 1017.76 1017.98 1018.07 1017.59 1017.36 1017.20 1017.09 1017.05 1016.77 1016.52 1016.33 1015.93 1015.55 1015.18 1014.77 1014.23 1013.59 1012.91 1012.00 1011.36 1010.86 1010.33 1009.72 1009.20 1008.64 1008.00 1007.38 1006.86 1006.37 1005.86 1005.45
1018.71 1018.65 1018.81 1018.66 1018.49 1018.50 1018.50 1018.42 1018.33 1018.23 1018.05 1017.92 1017.80 1018.25 1018.81 1018.01 1017.63 1017.47 1017.41 1017.40 1017.30 1017.02 1016.80 1016.45 1016.04 1015.65 1015.28 1014.83 1014.27 1013.53 1012.73 1012.09 1011.62 1011.10 1010.40 1009.75 1009.07 1008.42 1007.87 1007.34 1006.88 1006.43 1006.06
1018.82 1018.85 1018.53 1018.37 1018.33 1018.31 1018.26 1018.21 1018.15 1018.11 1017.97 1017.81 1017.76 1017.86 1018.44 1017.93 1017.76 1017.66 1017.61 1017.71 1017.69 1017.55 1017.29 1016.89 1016.48 1016.15 1015.83 1015.45 1014.95 1014.32 1013.59 1012.97 1012.45 1011.93 1011.20 1010.32 1009.52 1008.96 1008.42 1007.88 1007.41 1007.02 1006.60
1018.70 1018.53 1018.31 1018.16 1018.15 1018.18 1018.04 1017.94 1017.88 1017.86 1017.76 1017.66 1017.68 1017.62 1017.62 1017.78 1017.83 1017.80 1017.78 1017.85 1017.81 1017.72 1017.69 1017.37 1016.96 1016.67 1016.37 1015.93 1015.51 1014.98 1014.47 1013.98 1013.41 1012.72 1012.04 1010.99 1010.03 1009.60 1008.94 1008.47 1008.06 1007.66 1007.28
1018.43 1018.26 1018.06 1017.91 1017.89 1017.78 1017.67 1017.59 1017.53 1017.58 1017.68 1017.48 1017.44 1017.48 1017.51 1017.66 1017.70 1017.77 1017.81 1017.81 1017.78 1017.70 1017.70 1017.60 1017.40 1017.21 1016.90 1016.45 1015.93 1015.51 1015.20 1014.90 1014.13 1013.32 1012.53 1011.70 1010.94 1010.36 1009.68 1009.19 1008.71 1008.38 1007.91
1018.22 1018.03 1017.85 1017.64 1017.46 1017.34 1017.27 1017.19 1017.14 1017.13 1017.16 1017.20 1017.17 1017.24 1017.38 1017.54 1017.56 1017.63 1017.63 1017.65 1017.68 1017.64 1017.65 1017.66 1017.57 1017.31 1017.05 1016.76 1016.46 1016.08 1015.76 1015.27 1014.60 1014.12 1012.81 1012.05 1011.65 1011.17 1010.63 1010.01 1009.68 1009.03 1008.71
1017.98 1017.81 1017.59 1017.38 1017.21 1017.08 1016.94 1016.82 1016.73 1016.69 1016.75 1016.81 1016.88 1017.03 1017.21 1017.26 1017.41 1017.52 1017.56 1017.53 1017.49 1017.50 1017.59 1017.54 1017.47 1017.36 1017.09 1016.69 1016.68 1016.43 1016.02 1015.52 1014.98 1014.36 1013.33 1012.57 1012.24 1011.87 1011.35 1010.91 1010.44 1009.85 1009.49
Thickness
5485 5475 5467 5460 5450 5441 5432 5422 5413 5405 5391 5378 5363 5349 5336 5328 5323 5320 5317 5316 5316 5316 5316 5317 5320 5322 5324 5325 5326 5326 5327 5329 5337 5347 5349 5353 5355 5356 5358 5359 5363 5369 5374
5468 5460 5451 5441 5431 5423 5412 5400 5388 5375 5358 5344 5330 5321 5317 5315 5311 5308 5307 5306 5305 5305 5305 5306 5307 5308 5309 5310 5311 5313 5315 5316 5318 5327 5337 5338 5343 5344 5345 5348 5349 5355 5359
5453 5445 5436 5425 5410 5399 5387 5373 5360 5346 5334 5326 5318 5312 5308 5304 5301 5297 5294 5293 5293 5292 5292 5293 5293 5293 5294 5295 5296 5299 5301 5303 5304 5306 5321 5322 5325 5329 5333 5335 5336 5338 5341
5433 5425 5417 5404 5389 5377 5365 5351 5342 5332 5322 5314 5306 5298 5294 5290 5287 5285 5281 5279 5279 5279 5277 5277 5278 5278 5279 5281 5282 5285 5287 5290 5291 5291 5300 5309 5307 5311 5316 5320 5323 5324 5328
5417 5408 5396 5383 5365 5352 5338 5325 5317 5311 5305 5300 5293 5288 5282 5279 5277 5268 5266 5265 5267 5268 5266 5265 5265 5266 5264 5262 5265 5271 5275 5279 5281 5278 5276 5282 5287 5290 5293 5296 5298 5301 5309
5399 5387 5373 5361 5349 5340 5327 5317 5307 5300 5294 5288 5283 5277 5272 5267 5258 5250 5248 5252 5254 5256 5256 5255 5255 5256 5258 5257 5255 5255 5253 5255 5256 5255 5262 5267 5270 5270 5273 5275 5278 5281 5289
5379 5368 5357 5345 5335 5324 5313 5303 5295 5289 5283 5277 5272 5265 5259 5252 5243 5236 5232 5235 5238 5242 5243 5243 5245 5248 5248 5247 5247 5246 5245 5242 5241 5242 5248 5253 5256 5257 5259 5261 5263 5266 5273
5363 5351 5338 5326 5317 5309 5301 5292 5284 5278 5272 5266 5259 5250 5242 5235 5225 5218 5216 5219 5223 5225 5227 5229 5232 5233 5233 5233 5235 5239 5240 5241 5241 5241 5245 5251 5252 5250 5249 5253 5257 5260 5263
5346 5331 5319 5310 5300 5294 5290 5282 5274 5267 5259 5252 5243 5234 5227 5219 5211 5203 5201 5204 5208 5209 5209 5211 5215 5220 5224 5225 5228 5233 5238 5241 5243 5242 5242 5243 5244 5242 5241 5243 5248 5250 5257
5330 5319 5308 5297 5288 5283 5278 5272 5264 5256 5249 5238 5227 5218 5211 5206 5197 5191 5189 5190 5191 5195 5196 5201 5205 5210 5215 5217 5223 5230 5234 5237 5239 5241 5241 5242 5241 5243 5242 5241 5242 5247 5250
5317 5307 5296 5286 5279 5272 5267 5262 5254 5247 5237 5222 5210 5204 5199 5193 5187 5182 5179 5178 5179 5182 5187 5194 5201 5204 5208 5213 5218 5224 5228 5229 5233 5237 5241 5243 5243 5244 5247 5247 5246 5246 5248
5306 5296 5286 5277 5270 5263 5259 5253 5245 5238 5226 5212 5202 5197 5192 5185 5182 5177 5172 5171 5170 5174 5180 5188 5195 5198 5204 5210 5215 5221 5224 5228 5234 5239 5243 5247 5248 5249 5250 5249 5247 5245 5245
5296 5287 5278 5269 5262 5256 5251 5245 5237 5228 5215 5203 5195 5190 5184 5179 5178 5171 5168 5168 5169 5172 5179 5184 5190 5196 5202 5209 5215 5219 5224 5230 5234 5238 5242 5246 5247 5247 5245 5245 5243 5241 5238
5286 5278 5269 5262 5254 5250 5243 5237 5228 5216 5203 5195 5190 5184 5179 5174 5172 5165 5165 5166 5169 5175 5179 5187 5191 5195 5202 5208 5215 5221 5225 5230 5232 5236 5239 5243 5246 5246 5242 5242 5238 5235 5232
5274 5266 5259 5253 5248 5241 5234 5227 5216 5206 5193 5187 5182 5176 5173 5169 5164 5160 5160 5162 5167 5172 5179 5187 5191 5195 5202 5208 5215 5220 5225 5227 5230 5233 5237 5240 5244 5246 5242 5237 5232 5231 5229
5261 5256 5252 5244 5241 5234 5228 5221 5211 5197 5186 5178 5171 5167 5165 5161 5159 5159 5159 5162 5166 5172 5180 5184 5187 5189 5197 5205 5212 5217 5220 5222 5226 5231 5234 5237 5238 5241 5241 5238 5231 5229 5228
5248 5245 5243 5237 5235 5229 5221 5213 5206 5198 5186 5178 5169 5163 5159 5156 5157 5157 5159 5163 5167 5172 5177 5180 5182 5185 5191 5198 5205 5210 5214 5217 5221 5226 5230 5232 5233 5235 5236 5237 5234 5232 5228
5237 5234 5234 5234 5229 5222 5215 5207 5200 5193 5186 5182 5172 5162 5157 5155 5155 5156 5159 5166 5170 5171 5172 5175 5178 5181 5186 5192 5198 5203 5208 5213 5218 5222 5225 5227 5229 5231 5233 5233 5232 5229 5227
5234 5233 5229 5227 5222 5216 5209 5203 5196 5189 5183 5180 5174 5167 5159 5156 5156 5156 5158 5163 5166 5168 5168 5171 5174 5178 5182 5187 5192 5197 5203 5209 5213 5217 5220 5222 5224 5226 5229 5228 5228 5226 5224
5231 5227 5224 5224 5220 5214 5207 5200 5193 5187 5182 5177 5173 5165 5158 5159 5158 5158 5158 5159 5161 5164 5164 5167 5171 5174 5177 5181 5186 5192 5199 5203 5206 5210 5213 5216 5218 5221 5223 5224 5225 5225 5224
5229 5228 5223 5221 5217 5210 5203 5196 5190 5184 5179 5174 5170 5160 5150 5154 5154 5154 5154 5154 5156 5159 5160 5163 5166 5169 5172 5175 5179 5185 5192 5196 5198 5201 5205 5209 5212 5216 5218 5220 5221 5221 5221
5224 5221 5220 5218 5212 5206 5200 5193 5187 5180 5176 5172 5167 5161 5151 5152 5151 5150 5150 5149 5150 5152 5154 5158 5162 5164 5166 5169 5172 5177 5183 5187 5189 5192 5196 5202 5206 5209 5211 5214 5215 5216 5217
5221 5219 5217 5214 5209 5202 5196 5190 5184 5178 5174 5170 5164 5160 5156 5151 5148 5146 5145 5144 5145 5146 5148 5151 5155 5157 5159 5162 5166 5170 5174 5177 5179 5183 5187 5194 5200 5201 5205 5207 5208 5210 5210
5219 5217 5214 5211 5206 5201 5194 5188 5182 5176 5170 5167 5163 5158 5154 5149 5145 5143 5141 5140 5140 5141 5142 5144 5146 5148 5151 5155 5159 5162 5164 5166 5170 5175 5179 5185 5189 5192 5195 5198 5201 5201 5203
5216 5214 5211 5208 5205 5200 5193 5187 5181 5176 5170 5165 5161 5156 5151 5146 5143 5140 5138 5137 5136 5136 5136 5138 5139 5142 5144 5147 5149 5152 5155 5158 5162 5165 5172 5176 5178 5181 5183 5187 5188 5192 5193
5213 5210 5208 5206 5202 5197 5191 5185 5180 5175 5169 5164 5159 5154 5149 5145 5141 5137 5135 5133 5133 5132 5130 5131 5133 5135 5137 5140 5141 5143 5146 5149 5152 5156 5162 5166 5168 5169 5172 5174 5176 5180 5182